C/1999 K6 (LINEAR) 

Epoch 1999 Aug. 10.0 TT = JDT 2451400.5  

T 1999 July 24.67412 TT                                 Nakano

q   2.2469775            (2000.0)            P               Q

z  +0.0028832      Peri.   56.76355     +0.29647351     +0.69250096

 +/-0.0000012      Node   245.37213     -0.91859726     +0.39518981

e   0.9935215      Incl.   46.34388     +0.26130926     +0.60354572

From 314 observations 1999 May 20-2000 Jan. 15, mean residual 0".53.

Residuals in seconds of arc 

1999/                     990722 402  0.1-  0.3+    990912 561  0.3-  0.1-  

990520 704  1.4+  1.1-    990723 848  0.3+  0.4+    990912 561  0.2-  0.1+  

990520 704  0.1+  0.3+    990723 848  0.4-  0.1-    990912 561  0.4-  0.2-  

990520 704  1.6+  0.5-    990723 402  0.2-  0.7+    990912 561  0.2-  0.1-  

990520 704 (3.0+  0.5+)   990723 402  0.1+  0.4-    990912 561  0.2-  0.0   

990520 704  1.2+  0.7-    990723 402  0.5-  0.3-    990912 561  0.4-  0.0   

990521 704  0.9-  1.4-    990724 897  0.0   0.4+    990912 561  0.3-  0.1-  

990521 704  1.2-  0.8-    990724 897  1.0-  0.5+    990912 561  0.4-  0.2+  

990521 704 (3.6+  0.8+)   990724 897  1.6-  0.0     990914 046  0.5-  0.2+  

990521 704  0.0   0.7+    990725 118  0.2-  0.7-    990914 046  0.4-  0.1+  

990521 704  0.1-  1.2-    990725 118  1.6+  1.1-    990914 046  0.2-  0.1-  

990521 704  0.9-  0.5+    990726 848  0.3+  1.0+    990914 561  0.1+  0.2+  

990521 704  0.3-  0.4+    990726 848  0.8+  0.2+    990914 561  0.0   0.0   

990521 704  0.8-  0.4+    990726 848  0.1+  0.0     990914 561  0.2+  0.3-  

990521 704  0.5-  0.6+    990729 704  1.2+  1.2-    990914 561  0.1+  0.1+  

990524 704  0.8-  1.1-    990729 704  0.2+  1.0-    990914 561  0.1-  0.1+  

990524 704  0.7+  0.4-    990729 704  0.6-  0.7-    990914 561  0.2-  0.2-  

990524 704  0.3-  0.5+    990730 402  0.3-  0.5-    990914 561  0.0   0.2-  

990524 704  0.1+  0.3+    990730 402  0.2-  0.1+    990914 561  0.1+  0.0   

990524 704 (3.2-  0.8+)   990730 402  0.0   0.1-    990914 561  0.2+  0.2-  

990524 557  0.2+  1.0+    990730 349  0.6+  0.9+    990914 561  0.0   0.0   

990524 557  0.1-  0.5+    990730 349  0.6-  0.0     990914 561  0.2+  0.1-  

990524 557  0.1-  0.4+    990731 897  0.4+  0.7-    990914 561  0.1+  0.1-  

990524 046  0.5+  0.5-    990731 897  0.3-  0.7+    990915 848  0.3+  0.1-  

990524 046  0.2-  0.3-    990801 952  0.8+  0.8-    990915 848  0.4+  0.0   

990524 046  0.1-  0.3-    990801 952  1.0+  0.8-    990915 848  0.9+  0.6-  

990524 046  0.6-  0.1-    990801 952  0.5-  0.5-    990915 561  0.2-  0.4-  

990524 046  0.3-  0.5+    990802 355  0.5+  0.2+    990915 561  0.0   0.2+  

990525 860  1.2+  0.2-    990802 355  0.6+  0.5-    990915 561  0.2-  0.2-  

990525 860  0.5+  0.4+    990802 355  0.6+  0.6+    990915 561  0.2+  0.3-  

990525 860 (2.0+  1.8+)   990803 658  0.3-  0.5+    990915 561  0.3+  0.2-  

990525 844  0.7+  1.2-    990803 658  0.2-  0.4+    990915 561  0.1+  0.2-  

990525 844  0.1+  1.2+    990803 118  0.2-  0.7-    990915 561  0.1+  0.1-  

990525 844  0.6+  1.8-    990803 118  0.7-  0.2-    990915 561  0.3+  0.0   

990525 704 (1.2+  2.3+)   990804 118  0.2+  0.5-    990915 561  0.4+  0.0   

990525 704  1.1+  0.4+    990804 118  0.1+  0.6-    990915 561  0.2+  0.0   

990525 704  1.3+  0.6-    990804 118  0.2-  0.2-    990915 561  0.1+  0.0   

990525 704  1.0+  0.6+    990812 557  0.0   0.2+    990915 561  0.1+  0.0   

990525 595  0.8+  1.4-    990812 557  0.3-  0.3+    990915 561  0.1+  0.2-  

990525 595  0.6+  0.0     990818 897  0.0   0.4-    990915 561  0.2+  0.1+  

990525 595  0.4+  0.1+    990818 897  0.2-  0.2-    990915 561  0.6+  0.4+  

990527 046  0.2+  0.3-    990820 402  0.4+  0.1+    990915 561  0.0   0.1+  

990527 046  0.1-  0.4+    990820 402  0.5-  0.2-    990915 561  0.1+  0.0   

990527 046  0.1-  0.1+    990820 402  0.5-  0.1+    990915 561  0.5+  0.2-  

990529 402  0.1-  0.1+    990823 046  0.3-  0.6+    990915 561  0.4+  0.2-  

990529 402  0.3-  0.1-    990823 046  0.1+  0.3+    990915 561  0.1-  0.0   

990529 402  0.5-  0.1-    990823 046  0.0   0.4+    990915 561  0.0   0.0   

990531 402  0.4+  0.5+    990908 557  0.2-  0.1-    990915 561  0.1-  0.2+  

990531 402  0.4+  0.2-    990908 557  0.2-  0.0     990915 561  0.3+  0.1-  

990531 402  0.5-  0.0     990908 557  0.0   0.0     990915 561  0.4+  0.0   

990604 118  0.6+  0.3+    990909 118  0.1-  0.6-    990915 561  0.1+  0.1+  

990604 118  0.3-  1.1+    990909 118  0.3-  0.4-    990915 561  0.1-  0.2+  

990604 352  0.6-  0.9+    990911 561  1.0+  0.4-    990915 561  0.3+  0.2+  

990604 352  0.1-  0.4-    990911 561  1.0+  0.6-    990915 561  0.2+  0.1+  

990604 352  0.3+  0.5+    990911 561 (3.2+  1.6-)   990915 561  0.3+  0.0   

990608 372  1.0-  0.1+    990911 561  0.4+  0.3-    990915 561  0.2+  0.0   

990608 360  0.0   0.0     990911 561  0.1+  0.0     990916 561  0.0   0.1-  

990608 360  0.0   0.0     990911 561  0.0   0.3-    990916 561  0.1-  0.0   

990608 360  0.1-  0.5+    990911 561  0.1-  0.0     990916 848  0.0   0.6-  

990609 372  0.8-  0.0     990911 561  0.2+  0.3+    990916 848  0.6-  0.1-  

990609 900  0.7-  0.1-    990911 561  0.2+  0.1+    990916 848  0.1-  0.1-  

990609 867  0.3+  0.5+    990911 561  0.3+  0.0     990922 118  0.1+  0.3-  

990609 900  0.6-  0.1-    990911 561  0.3+  0.0     990922 118  0.6+  1.0+  

990609 867  0.5+  0.2+    990911 561  0.3+  0.2-    990923 897  1.7+  0.4-  

990611 704  0.3+  0.2+    990911 561  0.2+  0.1-    990923 897  0.3+  1.7-  

990611 704  0.5-  1.4+    990911 561  1.1+  0.1-    990923 461  0.4-  0.7+  

990611 704  0.3+  0.9+    990911 561  0.3+  0.0     990923 461 (5.1+  2.7-) 

990611 704 (0.0   4.9+)   990911 561  0.2+  0.0     990923 461 (4.1+  2.9-) 

990611 704  0.6-  1.7+    990911 561  0.3+  0.0     990927 704  0.3-  0.1+  

990614 349  1.4-  0.7+    990911 561  0.2+  0.2+    990927 704  1.4-  0.7+  

990614 355  1.2-  1.5+    990911 561  0.1+  0.1+    990927 704  0.8+  0.6-  

990614 355  1.3-  0.9+    990911 561  0.1+  0.1-    990927 704  0.8+  1.4+  

990614 355  1.4-  1.1+    990911 561  0.4+  0.0     990929 867  0.4-  0.2+  

990617 610  0.3+  0.8-    990911 561  0.1+  0.2+    990929 867  0.6-  0.0   

990617 610  0.2+  0.9-    990911 561  0.5+  0.1+    991001 704  0.3-  0.1+  

990617 610  0.2+  1.0-    990912 561  0.1+  0.5-    991001 704  1.2+  0.7-  

990617 610  0.1+  1.1-    990912 561  0.3+  0.0     991001 704  0.4-  0.1+  

990617 610  0.0   1.1-    990912 561  0.2-  0.0     991001 704  1.3+  0.0   

990625 118  1.7+  0.1-    990912 561  0.6+  0.4-    991011 897  0.4+  1.4-  

990625 118  1.0+  0.7+    990912 561  0.2+  0.1+    991011 897  1.7-  1.4+  

990701 504  0.1-  0.1+    990912 561  1.8-  1.1+    991011 897  0.4-  0.9+  

990701 504  0.1-  0.4+    990912 561  1.9-  0.4+    991020 402  0.1+  0.3+  

990701 504  0.2-  0.0     990912 118  0.1-  0.1-    991020 402  0.0   0.4-  

990703 046  0.1+  0.7+    990912 561  0.2-  0.3-    991020 402  0.6+  0.6-  

990703 046  0.1-  0.5+    990912 118  0.7+  0.1-    991029 402  0.4+  1.1-  

990703 046  0.0   0.6+    990912 561  0.1-  0.1-    991029 402  0.2-  0.2-  

990703 046  0.1+  0.6+    990912 561  0.1-  0.2-    991029 402  0.7-  0.2+  

990703 143  0.4+  0.8-    990912 561  0.3-  0.1-    991110 360  0.1+  0.2+  

990703 143  0.3-  0.4-    990912 561  0.1+  0.3-    991110 360  0.5+  0.3+  

990703 143  0.1-  0.8-    990912 561  0.1-  0.2-    991110 360  0.3-  0.4+  

990704 118  0.1+  0.5+    990912 561  0.2-  0.3-    991119 402  0.3+  0.5+  

990704 118  0.1-  0.8+    990912 561  0.2-  0.3-    991119 402  1.1+  0.2+  

990707 355  0.8-  0.2+    990912 561  0.1-  0.3-    991119 402  0.5-  0.6+  

990707 355  0.6+  0.1-    990912 561  0.2-  0.3-    991130 360  0.3-  0.4+  

990707 355  0.0   0.3-    990912 561  0.1-  0.2-    991130 360  0.1-  0.5+  

990707 352  0.4-  0.0     990912 561  0.2-  0.3-    991208 360  0.0   0.2-  

990707 352  0.6-  0.1+    990912 561  0.3-  0.2-    991208 360  0.1+  0.3-  

990707 352  0.5-  0.1-    990912 561  0.1+  0.1-    991208 360  0.1+  0.1+  

990708 372 (1.6-  3.6+)   990912 561  0.4-  0.1-    991212 897 (2.3+  0.2-) 

990708 360  0.2+  0.1-    990912 561  0.1-  0.2-    991212 897 (3.0+  0.6-) 

990708 360  0.1+  0.1+    990912 561  0.2-  0.1+    991212 897  0.0   0.1-  

990709 402  0.1-  0.3-    990912 561  0.5-  0.1-    991222 402  0.5+  0.4+  

990709 402  0.1-  0.5-    990912 561  0.4-  0.1+    991222 402  0.3-  0.7+  

990709 402  0.2+  0.0     990912 561  0.3-  0.2-    991222 402  0.3+  1.6+  

990710 900  0.2+  0.6+    990912 561  0.2-  0.1-    2000/                   

990710 900  0.7-  0.4+    990912 561  0.2-  0.1-    000115 402  0.3+  1.0+  

990718 113  0.4+  0.3+    990912 561  0.6-  0.0     000115 402  0.8+  0.1-  

990718 113  0.1-  0.5+    990912 561  0.3-  0.1-    000115 402  0.6+  0.3+  

990722 402  0.0   0.1-    990912 561  0.6-  0.2+    

990722 402  0.4-  0.2+    990912 561  0.7-  0.2+    



NAKANO

         **** Don't distribute anyone except personal use only ****

                (C) Copyright 2000 OAA/ComputingSection

write mail from CFAD0::NAKANO on 2000-01-25 02:03:41(JST).

 



    C/1999 K6 (LINEAR) 

Epoch 1999 Aug. 10.0 TT = JDT 2451400.5  

T 1999 July 24.67359 TT                                 Nakano

q   2.2469767            (2000.0)            P               Q

z  +0.0028837      Peri.   56.76333     +0.29647083     +0.69250206

 +/-0.0000017      Node   245.37214     -0.91859879     +0.39518625

e   0.9935204      Incl.   46.34389     +0.26130692     +0.60354678

From 282 observations 1999 May 20-Nov. 19, mean residual 0".52.

Residuals in seconds of arc 

1999/                     990708 372 (1.6-  3.5+)   990912 561  0.2-  0.3-  

990520 704  1.4+  1.1-    990708 360  0.2+  0.2-    990912 561  0.3-  0.2-  

990520 704  0.1+  0.3+    990708 360  0.2+  0.0     990912 561  0.1+  0.0   

